TimeEST,TemperatureF,Dew PointF,Humidity,Sea Level PressureIn,VisibilityMPH,Wind Direction,Wind SpeedMPH,Gust SpeedMPH,PrecipitationIn,Events,Conditions,WindDirDegrees,DateUTC
12:15 AM,46.4,33.8,62,30.05,10.0,South,5.8,-,N/A,,Light Drizzle,190,2012-12-16 05:15:00
12:35 AM,46.4,35.6,66,30.04,10.0,South,6.9,-,N/A,Rain,Light Rain,180,2012-12-16 05:35:00
12:55 AM,44.6,39.2,81,30.03,7.0,SSE,6.9,-,N/A,Rain,Light Rain,160,2012-12-16 05:55:00
1:15 AM,46.4,37.4,71,30.04,10.0,South,4.6,-,N/A,,Overcast,170,2012-12-16 06:15:00
1:35 AM,46.4,37.4,71,30.03,10.0,South,5.8,-,N/A,,Overcast,170,2012-12-16 06:35:00
1:55 AM,46.4,37.4,71,30.03,10.0,South,5.8,-,N/A,,Mostly Cloudy,180,2012-12-16 06:55:00
2:15 AM,46.4,37.4,71,30.03,10.0,South,3.5,-,N/A,Rain,Rain,180,2012-12-16 07:15:00
2:55 AM,44.6,41.0,87,30.04,7.0,South,8.1,-,0.01,Rain,Rain,190,2012-12-16 07:55:00
3:15 AM,44.6,42.8,93,30.05,10.0,South,8.1,-,0.02,Rain,Rain,190,2012-12-16 08:15:00
3:55 AM,44.6,42.8,93,30.02,10.0,South,3.5,-,N/A,,Overcast,170,2012-12-16 08:55:00
4:35 AM,44.6,42.8,93,30.03,7.0,Calm,Calm,-,N/A,,Mostly Cloudy,0,2012-12-16 09:35:00
4:55 AM,44.6,42.8,93,30.03,5.0,Calm,Calm,-,N/A,,Scattered Clouds,0,2012-12-16 09:55:00
5:15 AM,44.6,42.8,93,30.02,10.0,SSE,3.5,-,N/A,,Clear,160,2012-12-16 10:15:00
5:35 AM,44.6,42.8,93,30.01,7.0,Calm,Calm,-,N/A,,Mostly Cloudy,0,2012-12-16 10:35:00
5:55 AM,44.6,42.8,93,30.02,7.0,SSE,3.5,-,N/A,,Overcast,150,2012-12-16 10:55:00
6:15 AM,44.6,42.8,93,30.02,7.0,SE,4.6,-,N/A,,Mostly Cloudy,140,2012-12-16 11:15:00
6:35 AM,44.6,42.8,93,30.03,7.0,South,3.5,-,N/A,,Mostly Cloudy,180,2012-12-16 11:35:00
6:55 AM,44.6,44.6,100,30.04,10.0,South,4.6,-,N/A,,Overcast,190,2012-12-16 11:55:00
7:15 AM,46.4,44.6,93,30.03,10.0,SSE,4.6,-,N/A,,Mostly Cloudy,160,2012-12-16 12:15:00
7:35 AM,46.4,44.6,93,30.02,10.0,South,3.5,-,N/A,,Scattered Clouds,190,2012-12-16 12:35:00
7:55 AM,46.4,44.6,93,30.01,10.0,South,4.6,-,N/A,,Clear,190,2012-12-16 12:55:00
8:15 AM,46.4,44.6,93,30.01,10.0,Calm,Calm,-,N/A,,Scattered Clouds,0,2012-12-16 13:15:00
8:35 AM,46.4,44.6,93,30.02,7.0,SSW,4.6,-,N/A,,Scattered Clouds,210,2012-12-16 13:35:00
8:55 AM,46.4,44.6,93,30.01,4.0,SSE,8.1,-,N/A,,Drizzle,160,2012-12-16 13:55:00
9:15 AM,46.4,44.6,93,30.02,10.0,South,3.5,-,N/A,,Mostly Cloudy,170,2012-12-16 14:15:00
9:35 AM,48.2,46.4,93,30.01,10.0,South,6.9,-,N/A,,Scattered Clouds,170,2012-12-16 14:35:00
9:55 AM,48.2,46.4,93,29.98,10.0,SSE,6.9,-,N/A,,Scattered Clouds,150,2012-12-16 14:55:00
10:15 AM,48.2,46.4,93,30.01,10.0,West,3.5,-,N/A,,Scattered Clouds,260,2012-12-16 15:15:00
10:35 AM,48.2,46.4,93,30.01,10.0,South,6.9,-,N/A,,Scattered Clouds,180,2012-12-16 15:35:00
10:55 AM,48.2,46.4,93,30.00,10.0,South,10.4,-,N/A,,Scattered Clouds,190,2012-12-16 15:55:00
11:15 AM,48.2,46.4,93,29.98,7.0,South,5.8,-,N/A,,Light Drizzle,170,2012-12-16 16:15:00
11:35 AM,48.2,46.4,93,29.99,7.0,SSW,13.8,-,N/A,,Light Drizzle,200,2012-12-16 16:35:00
11:55 AM,48.2,48.2,100,30.00,7.0,SSW,10.4,-,0.01,Rain,Light Rain,200,2012-12-16 16:55:00
12:35 PM,48.2,48.2,100,29.98,5.0,Calm,Calm,-,0.02,Rain,Rain,0,2012-12-16 17:35:00
12:55 PM,50.0,48.2,94,29.96,3.0,SSE,4.6,-,0.01,Rain,Light Rain,160,2012-12-16 17:55:00
1:15 PM,50.0,48.2,94,29.94,1.5,SSE,8.1,-,0.03,Rain,Light Rain,160,2012-12-16 18:15:00
1:35 PM,51.8,50.0,94,29.94,7.0,South,8.1,-,0.04,Rain,Light Rain,180,2012-12-16 18:35:00
1:55 PM,51.8,50.0,94,29.95,10.0,South,8.1,-,N/A,Rain,Light Rain,180,2012-12-16 18:55:00
2:15 PM,53.6,51.8,94,29.93,10.0,South,6.9,-,0.01,Rain,Rain,180,2012-12-16 19:15:00
2:35 PM,53.6,51.8,94,29.93,10.0,South,8.1,-,0.02,Rain,Light Rain,170,2012-12-16 19:35:00
2:55 PM,53.6,51.8,94,29.92,10.0,South,6.9,-,N/A,Rain,Light Rain,170,2012-12-16 19:55:00
3:15 PM,53.6,53.6,100,29.93,10.0,SSW,10.4,-,N/A,Rain,Light Rain,200,2012-12-16 20:15:00
3:35 PM,53.6,51.8,94,29.94,10.0,WSW,8.1,-,N/A,,Light Drizzle,240,2012-12-16 20:35:00
3:55 PM,53.6,51.8,94,29.93,7.0,South,8.1,-,N/A,,Light Drizzle,190,2012-12-16 20:55:00
4:15 PM,53.6,51.8,94,29.93,10.0,South,6.9,-,N/A,,Scattered Clouds,180,2012-12-16 21:15:00
4:35 PM,53.6,53.6,100,29.92,10.0,South,6.9,-,N/A,,Scattered Clouds,170,2012-12-16 21:35:00
4:55 PM,53.6,51.8,94,29.92,10.0,South,6.9,-,N/A,Rain,Light Rain,180,2012-12-16 21:55:00
5:15 PM,53.6,51.8,94,29.92,10.0,South,5.8,-,0.01,,Clear,170,2012-12-16 22:15:00
5:35 PM,53.6,51.8,94,29.92,10.0,South,8.1,-,0.01,,Scattered Clouds,180,2012-12-16 22:35:00
5:55 PM,53.6,51.8,94,29.93,10.0,South,9.2,-,N/A,Rain,Light Rain,190,2012-12-16 22:55:00
6:15 PM,53.6,51.8,94,29.92,10.0,SSE,8.1,-,N/A,Rain,Light Rain,160,2012-12-16 23:15:00
6:35 PM,53.6,51.8,94,29.92,10.0,South,8.1,-,0.01,,Light Drizzle,170,2012-12-16 23:35:00
6:55 PM,53.6,51.8,94,29.91,10.0,SSE,10.4,-,N/A,,Drizzle,160,2012-12-16 23:55:00
7:15 PM,53.6,51.8,94,29.91,10.0,SSE,9.2,-,N/A,,Light Drizzle,160,2012-12-17 00:15:00
7:35 PM,53.6,51.8,94,29.91,10.0,South,11.5,19.6,N/A,,Scattered Clouds,190,2012-12-17 00:35:00
7:55 PM,53.6,51.8,94,29.91,10.0,SSW,8.1,-,N/A,,Scattered Clouds,200,2012-12-17 00:55:00
8:15 PM,53.6,51.8,94,29.92,10.0,SSW,9.2,-,N/A,,Scattered Clouds,210,2012-12-17 01:15:00
8:35 PM,53.6,51.8,94,29.91,10.0,South,6.9,-,N/A,,Drizzle,170,2012-12-17 01:35:00
8:55 PM,53.6,51.8,94,29.91,10.0,South,9.2,-,N/A,,Drizzle,190,2012-12-17 01:55:00
9:15 PM,53.6,51.8,94,29.92,10.0,SSW,8.1,-,N/A,,Drizzle,200,2012-12-17 02:15:00
9:35 PM,53.6,51.8,94,29.93,10.0,SSW,10.4,-,0.01,Rain,Light Rain,210,2012-12-17 02:35:00
9:55 PM,53.6,51.8,94,29.93,10.0,SW,8.1,-,0.01,Rain,Light Rain,220,2012-12-17 02:55:00
10:15 PM,53.6,51.8,94,29.93,10.0,SW,9.2,-,0.03,Rain,Light Rain,220,2012-12-17 03:15:00
10:35 PM,53.6,51.8,94,29.94,10.0,SSW,9.2,-,0.05,Rain,Rain,210,2012-12-17 03:35:00
10:55 PM,53.6,51.8,94,29.95,10.0,SW,6.9,-,0.01,Rain,Light Rain,220,2012-12-17 03:55:00
11:15 PM,51.8,51.8,100,29.95,10.0,SW,4.6,-,0.04,Rain,Light Rain,220,2012-12-17 04:15:00
11:35 PM,51.8,51.8,100,29.94,10.0,SSW,3.5,-,0.07,Rain,Light Rain,210,2012-12-17 04:35:00
11:55 PM,51.8,50.0,94,29.92,4.0,SSE,3.5,-,0.01,,Drizzle,160,2012-12-17 04:55:00